User: anonymous   Login
Location: Drocourt
(49.0571°N, 1.7669°E)
Time: 18:37:29
(UTC+00:00)
Language:

Transit 2A - Orbit

View from above orbital plane
View from above orbital plane
View from above satellite
View from above satellite

Ground track
Ground track

The orbit data is extracted from the following two-line orbital elements,

1    45U 60007A   24109.87122515  .00000785  00000-0  22056-3 0  9997
2    45  66.6932 286.1602 0251038  13.4722 347.2916 14.34650363323630
Epoch (UTC): 18 April 2024 20:54:33
Eccentricity: 0.0251038
inclination: 66.6932°
perigee height: 596 km
apogee height: 956 km
right ascension of ascending node: 286.1602°
argument of perigee: 13.4722°
revolutions per day: 14.34650363
mean anomaly at epoch: 347.2916°
orbit number at epoch: 32363

The dashed part of the orbit path shows where the satellite is in the earth's shadow,  

DLR